Weather in Dallas

United States     32°49′10″N   96°43′35″W
temp.,
°C
wind,
m/s
gust,
m/s
humid.,
%
clouds,
%
prec.,
mm/h
press.,
hPa
HPBL,
m
16 may, sun
sun1601:00+20sse51286100 0.0 1017640
04:00+19sse4129081 0.0 1016610
07:00+18se41397100 2.4 1016570
10:00+20sse51293100 2.1 1017632
13:00+21sse5109197 9.1 1015820
16:00+23se578149 2.6 1013804
19:00+21se599272 4.0 1012552
22:00+20sse51297100 0.8 1013631
17 may, mon
mon1701:00+20sse51397100 1.4 1012740
04:00+20sw3999100 9.3 1012531
07:00+20ssw31096100 12.3 1012583
10:00+23s478554 0.0 1012648
13:00+25ssw358298 0.6 1012619
16:00+28s456799 0.8 10101266
19:00+26sse36807 2.3 1010483
22:00+23se411920 0.1 1010467
18 may, tue
tue1801:00+22sse51394100 0.1 1011626
04:00+22sse61494100 0.2 1009882
07:00+22sse51189100 0.2 1011945
10:00+22se3895100 2.2 1012399
13:00+26sse697597 2.4 10101007
16:00+27sse697578 3.1 10081068
19:00+24s81583100 12.8 1007838
22:00+21se31297100 23.1 1007771
19 may, wed
wed1901:00+20ene4597100 87.4 1009153
04:00+20s71592100 8.5 1009746
07:00+19se41095100 8.8 1011460
10:00+19se61289100 0.5 1012454
13:00+21se71185100 1.9 1013626
16:00+21se5992100 1.2 1013639
19:00+21ssw1386100 1.2 1012438
22:00+20s2793100 0.0 1014390
20 may, thu
thu2001:00+19se61489100 0.0 1013558
04:00+18ese3893100 0.0 1013468
07:00+18e3898100 1.2 1015360
10:00+19e41099100 7.6 1016671
13:00+21ene3797100 9.3 1016421
16:00+23ese5989100 1.3 1015775
19:00+23ese61388100 3.6 1015816
22:00+21ese51491100 0.6 1016643